Location: Rounton
(54.4000°N, 1.3500°W)
Time: 06:31:21
(UTC+01:00)

deb Agena D - Pass Details

Date: 10 June 2023
Orbit: 996 x 1023 km, 100.1° (Epoch: 29 September)

Event Time Altitude Azimuth Distance (km) Brightness Sun altitude
Exits shadow 02:21:37 13° 211° (SSW) 2,552 ? -10.9°
Maximum altitude 02:26:16 30° 266° (W) 1,716 ? -10.7°
Drops below altitude 10° 02:31:40 10° 327° (NNW) 2,780 ? -10.4°
Sets 02:34:31 0° 338° (NNW) 3,732 ? -10.2°
